| time (UTC) | temp F | wind direction | speed MPH | gust MPH | rain 1hr in | rain 24hr in | rain mn in | humidity % | barometer mb |
| 20260503000603 | 50 | 0 | 0.0 | 1.0 | 0.00 | 0.01 | 0.00 | 78 | 1017.4 |
| 20260502234604 | 50 | 0 | 0.0 | 12.0 | 0.00 | 0.01 | 0.00 | 76 | 1017.7 |
| 20260502233604 | 50 | 0 | 0.0 | 0.0 | 0.00 | 0.01 | 0.00 | 77 | 1017.8 |
| 20260502233104 | 50 | 0 | 0.0 | 5.0 | 0.00 | 0.01 | 0.00 | 77 | 1017.8 |
| 20260502224604 | 50 | 0 | 0.0 | 0.0 | 0.00 | 0.01 | 0.00 | 77 | 1018.2 |
| 20260502221104 | 52 | 8 | 0.0 | 8.0 | 0.00 | 0.01 | 0.00 | 73 | 1018.4 |
| 20260502214608 | 52 | 67 | 1.0 | 6.0 | 0.00 | 0.01 | 0.00 | 79 | 1018.4 |
| 20260502213607 | 52 | 304 | 0.0 | 0.0 | 0.00 | 0.01 | 0.00 | 80 | 1018.4 |
| 20260502211108 | 52 | 300 | 0.0 | 0.0 | 0.00 | 0.01 | 0.00 | 79 | 1019.1 |
| 20260502210607 | 52 | 299 | 0.0 | 0.0 | 0.00 | 0.01 | 0.00 | 79 | 1019.1 |
| 20260502204107 | 52 | 292 | 0.0 | 0.0 | 0.00 | 0.01 | 0.01 | 78 | 1019.1 |
| 20260502203607 | 52 | 292 | 0.0 | 3.0 | 0.00 | 0.01 | 0.01 | 78 | 1019.1 |
| 20260502203107 | 52 | 292 | 0.0 | 5.0 | 0.00 | 0.01 | 0.01 | 78 | 1019.1 |
| 20260502194607 | 52 | 284 | 0.0 | 5.0 | 0.00 | 0.01 | 0.01 | 77 | 1019.2 |
| 20260502193607 | 52 | 295 | 1.0 | 6.0 | 0.00 | 0.01 | 0.01 | 76 | 1019.2 |
| 20260502193107 | 52 | 0 | 0.0 | 0.0 | 0.00 | 0.01 | 0.01 | 76 | 1018.9 |
| 20260502191607 | 52 | 0 | 0.0 | 0.0 | 0.00 | 0.01 | 0.01 | 75 | 1018.9 |
| 20260502190607 | 52 | 0 | 0.0 | 0.0 | 0.00 | 0.01 | 0.01 | 74 | 1018.8 |
| 20260502190107 | 52 | 0 | 0.0 | 0.0 | 0.00 | 0.01 | 0.01 | 74 | 1018.0 |
| 20260502184607 | 52 | 0 | 0.0 | 0.0 | 0.00 | 0.01 | 0.01 | 73 | 1018.0 |
| 20260502184107 | 53 | 0 | 0.0 | 0.0 | 0.00 | 0.01 | 0.01 | 73 | 1018.0 |
| 20260502183607 | 53 | 0 | 0.0 | 0.0 | 0.00 | 0.01 | 0.01 | 72 | 1018.0 |
| 20260502183107 | 53 | 0 | 0.0 | 1.0 | 0.00 | 0.01 | 0.01 | 72 | 1018.0 |
| 20260502180607 | 55 | 0 | 0.0 | 0.0 | 0.00 | 0.01 | 0.01 | 68 | 1018.0 |
| 20260502180107 | 55 | 0 | 0.0 | 1.0 | 0.00 | 0.01 | 0.01 | 68 | 1018.0 |
| 20260502170107 | 58 | 0 | 0.0 | 0.0 | 0.00 | 0.01 | 0.01 | 59 | 1018.0 |
| 20260502161107 | 59 | 0 | 0.0 | 0.0 | 0.00 | 0.01 | 0.01 | 57 | 1017.8 |
| 20260502160107 | 59 | 51 | 0.0 | 1.0 | 0.00 | 0.01 | 0.01 | 57 | 1017.8 |
| 20260502151607 | 60 | 19 | 0.0 | 0.0 | 0.00 | 0.01 | 0.01 | 51 | 1017.7 |
| 20260502151107 | 60 | 9 | 0.0 | 0.0 | 0.00 | 0.01 | 0.01 | 49 | 1017.7 |
| 20260502150607 | 61 | 5 | 0.0 | 0.0 | 0.00 | 0.01 | 0.01 | 49 | 1017.7 |
| 20260502140107 | 62 | 297 | 0.0 | 0.0 | 0.00 | 0.01 | 0.01 | 47 | 1018.0 |
| 20260502123607 | 61 | 356 | 0.0 | 0.0 | 0.00 | 0.01 | 0.01 | 51 | 1018.7 |
| 20260502123107 | 62 | 0 | 0.0 | 0.0 | 0.00 | 0.01 | 0.01 | 50 | 1018.7 |
| 20260502121107 | 63 | 301 | 0.0 | 1.0 | 0.00 | 0.01 | 0.01 | 48 | 1019.0 |
| 20260502120607 | 63 | 263 | 0.0 | 0.0 | 0.00 | 0.01 | 0.01 | 46 | 1019.0 |
| 20260502120107 | 62 | 271 | 0.0 | 0.0 | 0.00 | 0.01 | 0.01 | 45 | 1019.0 |
| 20260502114607 | 62 | 355 | 0.0 | 0.0 | 0.00 | 0.01 | 0.01 | 45 | 1019.2 |
| 20260502114107 | 62 | 358 | 0.0 | 0.0 | 0.00 | 0.01 | 0.01 | 47 | 1019.3 |
| 20260502113607 | 62 | 355 | 0.0 | 0.0 | 0.00 | 0.01 | 0.01 | 49 | 1019.3 |
| 20260502110607 | 59 | 349 | 0.0 | 0.0 | 0.00 | 0.01 | 0.01 | 53 | 1019.8 |
| 20260502104606 | 58 | 352 | 0.0 | 0.0 | 0.00 | 0.01 | 0.01 | 54 | 1020.0 |
| 20260502100107 | 58 | 0 | 0.0 | 0.0 | 0.00 | 0.01 | 0.01 | 54 | 1020.5 |
| 20260502090607 | 58 | 0 | 0.0 | 2.0 | 0.00 | 0.01 | 0.01 | 54 | 1020.8 |
| 20260502080107 | 55 | 304 | 0.0 | 1.0 | 0.00 | 0.01 | 0.01 | 62 | 1021.3 |
| 20260502071107 | 53 | 303 | 0.0 | 1.0 | 0.00 | 0.01 | 0.01 | 76 | 1021.7 |
| 20260502070107 | 53 | 294 | 0.0 | 1.0 | 0.00 | 0.01 | 0.01 | 77 | 1021.7 |
| 20260502064106 | 54 | 287 | 0.0 | 0.0 | 0.00 | 0.01 | 0.01 | 77 | 1021.7 |
| 20260502063607 | 53 | 335 | 0.0 | 0.0 | 0.00 | 0.01 | 0.01 | 76 | 1021.7 |
| 20260502060107 | 52 | 355 | 0.0 | 1.0 | 0.00 | 0.01 | 0.01 | 74 | 1021.8 |
| 20260502054107 | 52 | 27 | 0.0 | 1.0 | 0.00 | 0.01 | 0.01 | 76 | 1021.8 |
| 20260502053107 | 51 | 39 | 0.0 | 5.0 | 0.00 | 0.01 | 0.01 | 76 | 1021.8 |
| 20260502051606 | 50 | 5 | 0.0 | 14.0 | 0.00 | 0.01 | 0.01 | 77 | 1021.8 |
| 20260502051106 | 50 | 35 | 0.0 | 5.0 | 0.00 | 0.01 | 0.01 | 78 | 1021.8 |
| 20260502050607 | 49 | 16 | 0.0 | 2.0 | 0.00 | 0.01 | 0.01 | 78 | 1021.7 |
| 20260502044107 | 48 | 43 | 0.0 | 1.0 | 0.00 | 0.01 | 0.01 | 79 | 1021.6 |
| 20260502041606 | 47 | 43 | 0.0 | 0.0 | 0.00 | 0.01 | 0.01 | 78 | 1021.3 |
| 20260502040107 | 47 | 45 | 0.0 | 0.0 | 0.00 | 0.01 | 0.01 | 78 | 1021.3 |
| 20260502034107 | 47 | 43 | 0.0 | 1.0 | 0.00 | 0.01 | 0.01 | 78 | 1021.1 |
| 20260502033606 | 47 | 18 | 0.0 | 0.0 | 0.00 | 0.01 | 0.01 | 78 | 1021.1 |
| 20260502031107 | 48 | 8 | 0.0 | 0.0 | 0.00 | 0.01 | 0.01 | 78 | 1021.1 |
| 20260502030107 | 47 | 0 | 0.0 | 3.0 | 0.00 | 0.01 | 0.01 | 79 | 1021.2 |
| 20260502024607 | 47 | 22 | 0.0 | 1.0 | 0.00 | 0.01 | 0.01 | 81 | 1021.6 |
| 20260502024106 | 47 | 47 | 0.0 | 1.0 | 0.00 | 0.01 | 0.01 | 82 | 1021.6 |
| 20260502023107 | 47 | 44 | 0.0 | 1.0 | 0.00 | 0.01 | 0.01 | 83 | 1021.6 |
| 20260502021607 | 48 | 44 | 0.0 | 0.0 | 0.00 | 0.01 | 0.01 | 84 | 1021.6 |
| 20260502021107 | 48 | 44 | 0.0 | 0.0 | 0.00 | 0.02 | 0.01 | 85 | 1021.6 |
| 20260502020607 | 48 | 44 | 0.0 | 0.0 | 0.00 | 0.02 | 0.01 | 85 | 1021.6 |
| 20260502020107 | 48 | 44 | 0.0 | 0.0 | 0.00 | 0.02 | 0.01 | 85 | 1021.6 |
| 20260502014607 | 48 | 14 | 0.0 | 1.0 | 0.01 | 0.02 | 0.01 | 85 | 1021.6 |
| 20260502013607 | 48 | 47 | 0.0 | 1.0 | 0.01 | 0.02 | 0.01 | 85 | 1021.8 |
| 20260502013107 | 48 | 45 | 0.0 | 0.0 | 0.01 | 0.02 | 0.01 | 85 | 1021.8 |
| 20260502011607 | 48 | 45 | 0.0 | 0.0 | 0.01 | 0.02 | 0.01 | 85 | 1021.8 |
| 20260502004607 | 48 | 10 | 0.0 | 1.0 | 0.00 | 0.01 | 0.00 | 85 | 1021.8 |
| 20260502004107 | 48 | 38 | 0.0 | 1.0 | 0.00 | 0.01 | 0.00 | 85 | 1021.9 |
| 20260502003107 | 48 | 45 | 0.0 | 2.0 | 0.00 | 0.01 | 0.00 | 85 | 1021.9 |